Météo par heure à Aliaga

Ce jour, 25 Octobre, Dimanche

Heure Température Précipitation Vent Pression Humidité
00:00 +6°C° 0 mm 4 m/s 658 mmHg 72%
01:00 +6°C° 0 mm 5 m/s 658 mmHg 71%
02:00 +6°C° 0 mm 5 m/s 657 mmHg 70%
03:00 +6°C° 0 mm 5 m/s 657 mmHg 68%
04:00 +5°C° 0 mm 5 m/s 657 mmHg 68%
05:00 +5°C° 0 mm 5 m/s 656 mmHg 69%
06:00 +5°C° 0 mm 5 m/s 656 mmHg 69%
07:00 +7°C° 0 mm 6 m/s 657 mmHg 63%
08:00 +8°C° 0 mm 7 m/s 657 mmHg 57%
09:00 +10°C° 0 mm 8 m/s 657 mmHg 51%
10:00 +11°C° 0 mm 9 m/s 657 mmHg 47%
11:00 +12°C° 0 mm 10 m/s 657 mmHg 43%
12:00 +14°C° 0 mm 11 m/s 657 mmHg 39%
13:00 +13°C° 0 mm 11 m/s 656 mmHg 44%
14:00 +13°C° 0 mm 11 m/s 656 mmHg 49%
15:00 +13°C° 0 mm 11 m/s 655 mmHg 55%
16:00 +12°C° 0 mm 10 m/s 655 mmHg 60%
17:00 +11°C° 0 mm 9 m/s 654 mmHg 66%
18:00 +10°C° 0 mm 8 m/s 654 mmHg 71%
19:00 +9°C° 0 mm 7 m/s 654 mmHg 74%
20:00 +9°C° 0 mm 6 m/s 654 mmHg 77%
21:00 +9°C° 0 mm 5 m/s 654 mmHg 80%
22:00 +8°C° 0.2 mm 5 m/s 654 mmHg 81%
23:00 +7°C° 0.2 mm 5 m/s 653 mmHg 81%

Demain, 26 Octobre, Lundi

Heure Température Précipitation Vent Pression Humidité
00:00 +6°C° 0.2 mm 5 m/s 653 mmHg 82%
01:00 +4°C° 0.3 mm 6 m/s 653 mmHg 83%
02:00 +3°C° 0.3 mm 6 m/s 653 mmHg 83%
03:00 +3°C° 0.3 mm 6 m/s 652 mmHg 84%
04:00 +2°C° 0.1 mm 6 m/s 652 mmHg 82%
05:00 +2°C° 0.1 mm 6 m/s 653 mmHg 80%
06:00 +2°C° 0.1 mm 6 m/s 653 mmHg 78%
07:00 +2°C° 0 mm 7 m/s 653 mmHg 75%
08:00 +1°C° 0 mm 8 m/s 653 mmHg 72%
09:00 +2°C° 0 mm 9 m/s 654 mmHg 69%
10:00 +3°C° 0 mm 10 m/s 654 mmHg 63%
11:00 +5°C° 0 mm 10 m/s 654 mmHg 57%
12:00 +6°C° 0 mm 11 m/s 655 mmHg 52%
13:00 +6°C° 0 mm 10 m/s 654 mmHg 52%
14:00 +5°C° 0 mm 10 m/s 654 mmHg 52%
15:00 +5°C° 0 mm 10 m/s 654 mmHg 52%
16:00 +3°C° 0 mm 9 m/s 654 mmHg 56%
17:00 +2°C° 0 mm 8 m/s 655 mmHg 60%
18:00 +2°C° 0 mm 7 m/s 655 mmHg 64%
19:00 +2°C° 0 mm 6 m/s 655 mmHg 66%
20:00 +2°C° 0 mm 6 m/s 656 mmHg 68%
21:00 +1°C° 0 mm 6 m/s 656 mmHg 70%
22:00 +1°C° 0 mm 5 m/s 656 mmHg 73%
23:00 +1°C° 0 mm 5 m/s 656 mmHg 76%

Après-demain, 27 Octobre, Mardi

Heure Température Précipitation Vent Pression Humidité
00:00 0°C° 0 mm 4 m/s 656 mmHg 79%
01:00 0°C° 0 mm 4 m/s 656 mmHg 81%
02:00 0°C° 0 mm 4 m/s 655 mmHg 82%
03:00 -1°C° 0 mm 4 m/s 655 mmHg 84%
04:00 0°C° 0 mm 3 m/s 655 mmHg 82%
05:00 +1°C° 0 mm 3 m/s 655 mmHg 81%
06:00 +1°C° 0 mm 3 m/s 655 mmHg 80%
07:00 +1°C° 0 mm 4 m/s 656 mmHg 72%
08:00 +4°C° 0 mm 4 m/s 656 mmHg 64%
09:00 +5°C° 0 mm 5 m/s 657 mmHg 56%
10:00 +6°C° 0 mm 5 m/s 657 mmHg 51%
11:00 +8°C° 0 mm 5 m/s 657 mmHg 47%
12:00 +9°C° 0 mm 5 m/s 657 mmHg 43%
13:00 +9°C° 0 mm 6 m/s 657 mmHg 47%
14:00 +9°C° 0 mm 6 m/s 657 mmHg 52%
15:00 +9°C° 0 mm 6 m/s 656 mmHg 56%
16:00 +8°C° 0 mm 5 m/s 656 mmHg 60%
17:00 +7°C° 0 mm 5 m/s 656 mmHg 64%
18:00 +7°C° 0 mm 5 m/s 656 mmHg 68%
19:00 +6°C° 0 mm 4 m/s 656 mmHg 72%
20:00 +5°C° 0 mm 4 m/s 656 mmHg 75%
21:00 +5°C° 0 mm 3 m/s 656 mmHg 78%
22:00 +5°C° 0 mm 3 m/s 656 mmHg 79%
23:00 +5°C° 0 mm 3 m/s 656 mmHg 79%

28 Octobre, Mercredi

Heure Température Précipitation Vent Pression Humidité
00:00 +5°C° 0 mm 3 m/s 656 mmHg 80%
01:00 +5°C° 0 mm 3 m/s 656 mmHg 78%
02:00 +7°C° 0 mm 3 m/s 656 mmHg 77%
03:00 +7°C° 0 mm 3 m/s 656 mmHg 75%
04:00 +7°C° 0 mm 3 m/s 656 mmHg 78%
05:00 +5°C° 0 mm 3 m/s 656 mmHg 80%
06:00 +5°C° 0 mm 3 m/s 656 mmHg 83%
07:00 +8°C° 0 mm 3 m/s 657 mmHg 76%
08:00 +10°C° 0 mm 3 m/s 658 mmHg 69%
09:00 +12°C° 0 mm 3 m/s 659 mmHg 62%
10:00 +13°C° 0 mm 4 m/s 659 mmHg 58%
11:00 +14°C° 0 mm 4 m/s 659 mmHg 53%
12:00 +16°C° 0 mm 5 m/s 660 mmHg 49%
13:00 +16°C° 0 mm 5 m/s 659 mmHg 47%
14:00 +16°C° 0 mm 5 m/s 659 mmHg 45%
15:00 +16°C° 0 mm 5 m/s 659 mmHg 43%
16:00 +14°C° 0 mm 4 m/s 658 mmHg 54%
17:00 +11°C° 0 mm 3 m/s 658 mmHg 65%
18:00 +9°C° 0 mm 2 m/s 658 mmHg 76%
19:00 +9°C° 0 mm 2 m/s 658 mmHg 78%
20:00 +9°C° 0 mm 1 m/s 658 mmHg 81%
21:00 +8°C° 0 mm 1 m/s 658 mmHg 83%
22:00 +8°C° 0 mm 1 m/s 658 mmHg 83%
23:00 +8°C° 0 mm 1 m/s 658 mmHg 84%

29 Octobre, Jeudi

Heure Température Précipitation Vent Pression Humidité
00:00 +7°C° 0 mm 2 m/s 658 mmHg 84%
01:00 +8°C° 0 mm 1 m/s 658 mmHg 85%
02:00 +7°C° 0 mm 1 m/s 658 mmHg 85%
03:00 +7°C° 0 mm 1 m/s 658 mmHg 86%
04:00 +7°C° 0 mm 1 m/s 658 mmHg 86%
05:00 +6°C° 0 mm 1 m/s 658 mmHg 86%
06:00 +6°C° 0 mm 1 m/s 658 mmHg 86%
07:00 +8°C° 0 mm 1 m/s 659 mmHg 79%
08:00 +10°C° 0 mm 1 m/s 660 mmHg 72%
09:00 +12°C° 0 mm 1 m/s 661 mmHg 65%
10:00 +13°C° 0 mm 2 m/s 662 mmHg 57%
11:00 +15°C° 0 mm 2 m/s 662 mmHg 50%
12:00 +17°C° 0 mm 3 m/s 662 mmHg 42%
13:00 +17°C° 0 mm 3 m/s 662 mmHg 41%
14:00 +17°C° 0 mm 4 m/s 662 mmHg 41%
15:00 +17°C° 0 mm 4 m/s 662 mmHg 41%
16:00 +14°C° 0 mm 3 m/s 661 mmHg 50%
17:00 +12°C° 0 mm 3 m/s 661 mmHg 59%
18:00 +10°C° 0 mm 2 m/s 660 mmHg 68%
19:00 +9°C° 0 mm 2 m/s 660 mmHg 71%
20:00 +9°C° 0 mm 2 m/s 661 mmHg 74%
21:00 +9°C° 0 mm 1 m/s 661 mmHg 77%
22:00 +8°C° 0 mm 2 m/s 661 mmHg 79%
23:00 +8°C° 0 mm 2 m/s 661 mmHg 80%

30 Octobre, Vendredi

Heure Température Précipitation Vent Pression Humidité
00:00 +8°C° 0 mm 2 m/s 661 mmHg 81%
01:00 +8°C° 0 mm 2 m/s 660 mmHg 82%
02:00 +8°C° 0 mm 2 m/s 660 mmHg 83%
03:00 +8°C° 0 mm 2 m/s 660 mmHg 85%
04:00 +8°C° 0 mm 2 m/s 660 mmHg 84%
05:00 +7°C° 0 mm 2 m/s 660 mmHg 83%
06:00 +7°C° 0 mm 2 m/s 659 mmHg 83%
07:00 +9°C° 0 mm 2 m/s 660 mmHg 74%
08:00 +13°C° 0 mm 2 m/s 661 mmHg 66%
09:00 +15°C° 0 mm 2 m/s 662 mmHg 58%
10:00 +16°C° 0 mm 3 m/s 662 mmHg 53%
11:00 +17°C° 0 mm 3 m/s 662 mmHg 48%
12:00 +18°C° 0 mm 4 m/s 662 mmHg 43%
13:00 +18°C° 0 mm 4 m/s 662 mmHg 42%
14:00 +19°C° 0 mm 4 m/s 662 mmHg 42%
15:00 +19°C° 0 mm 4 m/s 662 mmHg 41%
16:00 +17°C° 0 mm 4 m/s 661 mmHg 50%
17:00 +14°C° 0 mm 3 m/s 660 mmHg 59%
18:00 +12°C° 0 mm 3 m/s 660 mmHg 67%
19:00 +11°C° 0 mm 3 m/s 660 mmHg 69%
20:00 +11°C° 0 mm 3 m/s 660 mmHg 72%
21:00 +11°C° 0 mm 3 m/s 660 mmHg 74%
22:00 +10°C° 0 mm 3 m/s 660 mmHg 76%
23:00 +10°C° 0 mm 3 m/s 659 mmHg 78%
Voir plus

Nous avons besoin de votre consentement

Meteoprog et ses fournisseurs de services peuvent stocker et accéder à des données personnelles telles que des cookies, des identifiants d'appareils ou d'autres technologies similaires sur votre appareil et traiter ces données pour personnaliser le contenu et les publicités, ainsi que pour fournir des fonctionnalités de médias sociaux et analyser le trafic.

  • Stocker et/ou accéder à des informations sur votre appareil

    Des cookies, des identifiants d'appareils ou d'autres informations peuvent être stockés ou accessibles sur votre appareil aux fins indiquées ci-dessus.

  • Annonces et contenus personnalisés, mesure des annonces et des contenus, connaissance de l'audience et développement de produits

    Les annonces et le contenu peuvent être personnalisés en fonction d'un profil. D'autres données peuvent être ajoutées pour mieux personnaliser les annonces et le contenu. Les performances des publicités et du contenu peuvent être mesurées. Il est possible d'obtenir des informations sur le public qui a vu les publicités et le contenu. Ces données peuvent être utilisées pour développer ou améliorer l'expérience de l'utilisateur, les systèmes et les logiciels.

En cliquant sur "J'accepte", vous autorisez l'utilisation de cookies, des identifiants d'appareils, des balises web ou d'autres technologies similaires. Vos paramètres peuvent être modifiés dans le navigateur de votre appareil.

Dans certains cas, des intérêts légitimes peuvent être invoqués plutôt qu'un consentement. Vous pouvez en savoir plus à ce sujet dans notre Politique de confidentialité et de cookies.